• In Belgien
  • Länderverzeichnis
  • Für 7 Tage
  • Wassertemperatur
  • Satellitenkarten
  • Wetterkarte
  • Widgets
  • user-avatar
    Anmelden

    Stündliche Wetter Kalgoorlie

    Heute, 25 Februar, Sonntag

    Zeit Temperatur Niederschläge Wind Luftdruck Luftfeuchtigkeit
    00:00 +22°C° 0 mm 8 m/S 730 mmHg 50%
    01:00 +21°C° 0 mm 8 m/S 730 mmHg 52%
    02:00 +21°C° 0 mm 8 m/S 730 mmHg 53%
    03:00 +20°C° 0 mm 8 m/S 730 mmHg 56%
    04:00 +20°C° 0 mm 8 m/S 729 mmHg 59%
    05:00 +18°C° 0 mm 8 m/S 729 mmHg 61%
    06:00 +18°C° 0 mm 8 m/S 729 mmHg 61%
    07:00 +20°C° 0 mm 8 m/S 729 mmHg 60%
    08:00 +20°C° 0 mm 7 m/S 729 mmHg 59%
    09:00 +20°C° 0,3 mm 7 m/S 729 mmHg 61%
    10:00 +20°C° 0,3 mm 8 m/S 729 mmHg 63%
    11:00 +20°C° 0,3 mm 8 m/S 728 mmHg 64%
    12:00 +20°C° 0,1 mm 7 m/S 728 mmHg 65%
    13:00 +21°C° 0,1 mm 7 m/S 728 mmHg 65%
    14:00 +21°C° 0 mm 8 m/S 727 mmHg 65%
    15:00 +22°C° 0 mm 7 m/S 727 mmHg 64%
    16:00 +22°C° 0 mm 7 m/S 727 mmHg 62%
    17:00 +23°C° 0 mm 7 m/S 727 mmHg 61%
    18:00 +23°C° 0 mm 6 m/S 727 mmHg 62%
    19:00 +22°C° 0 mm 5 m/S 726 mmHg 63%
    20:00 +22°C° 0 mm 4 m/S 726 mmHg 65%
    21:00 +22°C° 0,1 mm 3 m/S 726 mmHg 64%
    22:00 +22°C° 0,1 mm 3 m/S 726 mmHg 64%
    23:00 +22°C° 0,1 mm 3 m/S 726 mmHg 64%

    Morgen, 26 Februar, Montag

    Zeit Temperatur Niederschläge Wind Luftdruck Luftfeuchtigkeit
    00:00 +22°C° 0,6 mm 3 m/S 725 mmHg 65%
    01:00 +22°C° 0,6 mm 3 m/S 725 mmHg 66%
    02:00 +21°C° 0,6 mm 4 m/S 725 mmHg 67%
    03:00 +22°C° 0,2 mm 4 m/S 724 mmHg 65%
    04:00 +22°C° 0,2 mm 5 m/S 724 mmHg 63%
    05:00 +22°C° 0,2 mm 6 m/S 724 mmHg 60%
    06:00 +23°C° 0,1 mm 6 m/S 724 mmHg 55%
    07:00 +24°C° 0,1 mm 7 m/S 724 mmHg 50%
    08:00 +26°C° 0,1 mm 8 m/S 724 mmHg 45%
    09:00 +28°C° 0,2 mm 8 m/S 724 mmHg 41%
    10:00 +32°C° 0,2 mm 8 m/S 724 mmHg 36%
    11:00 +34°C° 0,2 mm 8 m/S 723 mmHg 32%
    12:00 +35°C° 0 mm 8 m/S 723 mmHg 30%
    13:00 +37°C° 0 mm 8 m/S 722 mmHg 28%
    14:00 +38°C° 0 mm 7 m/S 722 mmHg 26%
    15:00 +38°C° 0 mm 7 m/S 722 mmHg 28%
    16:00 +38°C° 0 mm 6 m/S 721 mmHg 29%
    17:00 +36°C° 0 mm 5 m/S 721 mmHg 31%
    18:00 +35°C° 0,5 mm 5 m/S 721 mmHg 37%
    19:00 +33°C° 0,5 mm 5 m/S 722 mmHg 43%
    20:00 +30°C° 0,5 mm 5 m/S 722 mmHg 49%
    21:00 +29°C° 0,9 mm 4 m/S 722 mmHg 53%
    22:00 +29°C° 0,9 mm 4 m/S 723 mmHg 58%
    23:00 +28°C° 0,9 mm 3 m/S 723 mmHg 62%

    übermorgen, 27 Februar, Dienstag

    Zeit Temperatur Niederschläge Wind Luftdruck Luftfeuchtigkeit
    00:00 +27°C° 0 mm 3 m/S 723 mmHg 64%
    01:00 +26°C° 0 mm 4 m/S 723 mmHg 66%
    02:00 +25°C° 0 mm 4 m/S 723 mmHg 68%
    03:00 +23°C° 0 mm 5 m/S 724 mmHg 70%
    04:00 +22°C° 0 mm 5 m/S 724 mmHg 72%
    05:00 +21°C° 0 mm 6 m/S 725 mmHg 75%
    06:00 +21°C° 0 mm 6 m/S 726 mmHg 73%
    07:00 +21°C° 0 mm 6 m/S 726 mmHg 72%
    08:00 +21°C° 0 mm 7 m/S 727 mmHg 70%
    09:00 +22°C° 0 mm 6 m/S 727 mmHg 64%
    10:00 +23°C° 0 mm 6 m/S 728 mmHg 58%
    11:00 +24°C° 0 mm 6 m/S 728 mmHg 51%
    12:00 +26°C° 0 mm 6 m/S 728 mmHg 45%
    13:00 +27°C° 0 mm 6 m/S 727 mmHg 38%
    14:00 +28°C° 0 mm 5 m/S 727 mmHg 32%
    15:00 +28°C° 0 mm 5 m/S 727 mmHg 29%
    16:00 +28°C° 0 mm 5 m/S 728 mmHg 26%
    17:00 +28°C° 0 mm 5 m/S 728 mmHg 23%
    18:00 +27°C° 0 mm 5 m/S 728 mmHg 26%
    19:00 +26°C° 0 mm 6 m/S 729 mmHg 29%
    20:00 +24°C° 0 mm 6 m/S 729 mmHg 33%
    21:00 +23°C° 0 mm 7 m/S 730 mmHg 37%
    22:00 +22°C° 0 mm 7 m/S 730 mmHg 41%
    23:00 +21°C° 0 mm 8 m/S 730 mmHg 45%

    28 Februar, Mittwoch

    Zeit Temperatur Niederschläge Wind Luftdruck Luftfeuchtigkeit
    00:00 +20°C° 0 mm 8 m/S 730 mmHg 47%
    01:00 +18°C° 0 mm 8 m/S 731 mmHg 50%
    02:00 +17°C° 0 mm 7 m/S 731 mmHg 53%
    03:00 +17°C° 0 mm 7 m/S 731 mmHg 55%
    04:00 +16°C° 0 mm 7 m/S 731 mmHg 58%
    05:00 +16°C° 0 mm 6 m/S 731 mmHg 60%
    06:00 +16°C° 0 mm 6 m/S 731 mmHg 59%
    07:00 +17°C° 0 mm 7 m/S 731 mmHg 58%
    08:00 +17°C° 0 mm 7 m/S 732 mmHg 57%
    09:00 +20°C° 0 mm 6 m/S 732 mmHg 51%
    10:00 +22°C° 0 mm 6 m/S 732 mmHg 45%
    11:00 +24°C° 0 mm 6 m/S 732 mmHg 38%
    12:00 +27°C° 0 mm 6 m/S 731 mmHg 36%
    13:00 +28°C° 0 mm 5 m/S 730 mmHg 33%
    14:00 +29°C° 0 mm 5 m/S 730 mmHg 30%
    15:00 +29°C° 0 mm 5 m/S 730 mmHg 30%
    16:00 +29°C° 0 mm 5 m/S 729 mmHg 30%
    17:00 +29°C° 0 mm 5 m/S 729 mmHg 29%
    18:00 +28°C° 0 mm 5 m/S 730 mmHg 31%
    19:00 +27°C° 0 mm 6 m/S 730 mmHg 33%
    20:00 +26°C° 0 mm 6 m/S 730 mmHg 35%
    21:00 +26°C° 0 mm 6 m/S 730 mmHg 36%
    22:00 +24°C° 0 mm 6 m/S 730 mmHg 38%
    23:00 +24°C° 0 mm 7 m/S 730 mmHg 39%

    1 März, Donnerstag

    Zeit Temperatur Niederschläge Wind Luftdruck Luftfeuchtigkeit
    00:00 +23°C° 0 mm 6 m/S 730 mmHg 40%
    01:00 +23°C° 0 mm 6 m/S 730 mmHg 42%
    02:00 +23°C° 0 mm 6 m/S 730 mmHg 43%
    03:00 +22°C° 0 mm 6 m/S 729 mmHg 47%
    04:00 +22°C° 0 mm 6 m/S 729 mmHg 51%
    05:00 +21°C° 0 mm 5 m/S 729 mmHg 55%
    06:00 +21°C° 0 mm 6 m/S 729 mmHg 56%
    07:00 +22°C° 0 mm 6 m/S 730 mmHg 57%
    08:00 +22°C° 0 mm 7 m/S 730 mmHg 58%
    09:00 +24°C° 0 mm 7 m/S 730 mmHg 51%
    10:00 +27°C° 0 mm 7 m/S 730 mmHg 44%
    11:00 +29°C° 0 mm 7 m/S 729 mmHg 36%
    12:00 +30°C° 0 mm 6 m/S 729 mmHg 34%
    13:00 +33°C° 0 mm 6 m/S 728 mmHg 32%
    14:00 +34°C° 0 mm 6 m/S 727 mmHg 29%
    15:00 +34°C° 0 mm 5 m/S 727 mmHg 30%
    16:00 +34°C° 0 mm 5 m/S 727 mmHg 30%
    17:00 +34°C° 0 mm 5 m/S 727 mmHg 31%
    18:00 +33°C° 0 mm 5 m/S 727 mmHg 34%
    19:00 +32°C° 0 mm 5 m/S 727 mmHg 37%
    20:00 +30°C° 0 mm 6 m/S 728 mmHg 40%
    21:00 +29°C° 0 mm 6 m/S 728 mmHg 46%
    22:00 +27°C° 0 mm 7 m/S 728 mmHg 52%
    23:00 +26°C° 0 mm 7 m/S 727 mmHg 58%

    2 März, Freitag

    Zeit Temperatur Niederschläge Wind Luftdruck Luftfeuchtigkeit
    00:00 +26°C° 0 mm 7 m/S 727 mmHg 61%
    01:00 +24°C° 0 mm 7 m/S 727 mmHg 64%
    02:00 +23°C° 0 mm 6 m/S 726 mmHg 66%
    03:00 +23°C° 0 mm 6 m/S 726 mmHg 68%
    04:00 +23°C° 0 mm 6 m/S 726 mmHg 69%
    05:00 +23°C° 0 mm 5 m/S 726 mmHg 70%
    06:00 +24°C° 0 mm 6 m/S 726 mmHg 66%
    07:00 +24°C° 0 mm 7 m/S 726 mmHg 61%
    08:00 +26°C° 0 mm 7 m/S 727 mmHg 57%
    09:00 +29°C° 0 mm 7 m/S 726 mmHg 49%
    10:00 +32°C° 0 mm 7 m/S 726 mmHg 42%
    11:00 +34°C° 0 mm 7 m/S 726 mmHg 34%
    12:00 +34°C° 0 mm 6 m/S 725 mmHg 34%
    13:00 +34°C° 0 mm 6 m/S 725 mmHg 33%
    14:00 +35°C° 0 mm 5 m/S 724 mmHg 32%
    15:00 +35°C° 0,1 mm 5 m/S 724 mmHg 31%
    16:00 +36°C° 0,1 mm 5 m/S 724 mmHg 31%
    17:00 +36°C° 0,1 mm 4 m/S 724 mmHg 30%
    18:00 +33°C° 3,2 mm 5 m/S 724 mmHg 43%
    19:00 +29°C° 3,2 mm 6 m/S 725 mmHg 57%
    20:00 +27°C° 3,2 mm 7 m/S 725 mmHg 71%
    21:00 +24°C° 0,8 mm 7 m/S 725 mmHg 74%
    22:00 +23°C° 0,8 mm 8 m/S 726 mmHg 77%
    23:00 +22°C° 0,8 mm 8 m/S 726 mmHg 81%
    Mehr zeigen